Change the Weather History Date:

Tuesday, March 11, 2014

  Actual Average Record
Temperature  
Mean Temperature 16 °F 22 °F  
Max Temperature 32 °F 36 °F 46 °F (2015)
Min Temperature 0 °F 8 °F -21 °F (2006)
Degree Days  
Heating Degree Days 49 43  
Month to date heating degree days 468 495  
Since 1 July heating degree days 8521 8432  
Cooling Degree Days 0 0  
Month to date cooling degree days 0 0  
Year to date cooling degree days 0 0  
Moisture  
Dew Point 14 °F    
Average Humidity 69    
Maximum Humidity 92    
Minimum Humidity 46    
Precipitation  
Precipitation 0.09 in 0.03 in 0.20 in (2011)
Month to date precipitation 2.07 0.31  
Year to date precipitation 7.15 3.83  
Sea Level Pressure  
Sea Level Pressure 30.25 in    
Wind  
Wind Speed 3 mph (NNW)    
Max Wind Speed 9 mph    
Max Gust Speed 16 mph    
T = Trace of Precipitation, MM = Missing Value Source: NWS Daily Summary

Daily Weather History Graph

Daily Weather History Graph

Search for Another Location

Airport or City:

Trip Planner

Search our weather history database for the weather conditions in past years. The results will help you decide how hot, cold, wet, or windy it might be!

Date:

Astronomy

Mar. 11, 2014 Rise Set
Actual Time 7:41 AM MDT 7:22 PM MDT
Civil Twilight 7:12 AM MDT 7:51 PM MDT
Nautical Twilight 6:38 AM MDT 8:25 PM MDT
Astronomical Twilight 6:04 AM MDT 8:59 PM MDT
Moon 2:54 PM MDT (3/11) 4:45 AM MDT (3/11)
Length of Visible Light 12h 39m
Length of Day
11h 41m
Waxing Gibbous, 78% of the Moon is Illuminated
Mar 11
Waxing Gibbous
Mar 16
Full
Mar 23
Last Quarter
Mar 30
New
Apr 7
First Quarter

Hourly Weather History & Observations

Time (MDT) Temp. Windchill Dew Point Humidity Pressure Visibility Wind Dir Wind Speed Gust Speed Precip Events Conditions
12:56 AM 24.1 °F - 21.0 °F 88% 29.87 in - Calm Calm - N/A   Unknown
1:56 AM 24.1 °F - 21.0 °F 88% 29.89 in - Calm Calm - 0.01 in   Unknown
2:56 AM 24.1 °F 19.7 °F 21.0 °F 88% 29.90 in - Variable 3.5 mph - 0.03 in   Unknown
3:56 AM 24.1 °F 19.7 °F 21.0 °F 88% 29.94 in - Variable 3.5 mph - 0.02 in   Unknown
4:56 AM 23.0 °F 14.7 °F 19.9 °F 88% 29.97 in - Variable 6.9 mph - 0.03 in   Unknown
5:56 AM 21.9 °F 15.7 °F 18.0 °F 85% 30.03 in - Variable 4.6 mph - N/A   Unknown
6:56 AM 21.9 °F 15.7 °F 18.0 °F 85% 30.08 in - Variable 4.6 mph - N/A   Unknown
7:56 AM 21.0 °F 16.2 °F 16.0 °F 81% 30.14 in - Variable 3.5 mph - N/A   Unknown
8:56 AM 21.9 °F 15.7 °F 15.1 °F 75% 30.20 in - Variable 4.6 mph - N/A   Unknown
9:56 AM 24.1 °F 17.0 °F 16.0 °F 71% 30.26 in - Variable 5.8 mph - N/A   Unknown
10:56 AM 24.1 °F 18.2 °F 14.0 °F 65% 30.31 in - East 4.6 mph - N/A   Unknown
11:56 AM 27.0 °F - 14.0 °F 58% 30.32 in - Calm Calm - N/A   Unknown
12:56 PM 27.0 °F - 12.0 °F 53% 30.35 in - Calm Calm - N/A   Unknown
1:56 PM 28.9 °F 25.2 °F 14.0 °F 54% 30.35 in - Variable 3.5 mph - N/A   Unknown
2:56 PM 28.9 °F 23.9 °F 10.9 °F 47% 30.35 in - Variable 4.6 mph - N/A   Unknown
3:56 PM 28.9 °F - 12.0 °F 49% 30.35 in - North - - N/A   Unknown
4:56 PM 28.0 °F 24.2 °F 12.9 °F 53% 30.37 in - Variable 3.5 mph - N/A   Unknown
5:56 PM 28.9 °F 25.2 °F 10.0 °F 45% 30.36 in - Variable 3.5 mph - N/A   Unknown
6:56 PM 23.0 °F - 14.0 °F 68% 30.42 in - Calm Calm - N/A   Unknown
7:56 PM 16.0 °F 8.8 °F 12.9 °F 88% 30.48 in - NW 4.6 mph - N/A   Unknown
8:56 PM 10.0 °F 3.6 °F 8.1 °F 92% 30.53 in - NW 3.5 mph - N/A   Unknown
9:56 PM 8.1 °F - 5.0 °F 87% 30.53 in - Calm Calm - N/A   Unknown
10:56 PM 5.0 °F - 1.0 °F 84% 30.55 in - Calm Calm - N/A   Unknown
11:56 PM 3.0 °F - -0.9 °F 84% 30.55 in - Calm Calm - N/A   Unknown